EN

Hourly Weather Ladantsi

Today, 1 August, Sunday

Time Temperature Precipitation Wind Pressure Humidity
00:00 +18°C° 0 mm 1 mps 727 mmHg 95%
01:00 +18°C° 0 mm 1 mps 727 mmHg 96%
02:00 +16°C° 0 mm 1 mps 727 mmHg 96%
03:00 +16°C° 0 mm 1 mps 727 mmHg 95%
04:00 +16°C° 0 mm 1 mps 727 mmHg 95%
05:00 +15°C° 0 mm 1 mps 727 mmHg 95%
06:00 +18°C° 0 mm 1 mps 727 mmHg 90%
07:00 +20°C° 0 mm 1 mps 727 mmHg 85%
08:00 +21°C° 0 mm 1 mps 728 mmHg 80%
09:00 +23°C° 0 mm 1 mps 728 mmHg 73%
10:00 +25°C° 0 mm 2 mps 728 mmHg 66%
11:00 +26°C° 0 mm 2 mps 728 mmHg 59%
12:00 +27°C° 0 mm 2 mps 727 mmHg 55%
13:00 +28°C° 0 mm 3 mps 727 mmHg 52%
14:00 +29°C° 0 mm 3 mps 727 mmHg 48%
15:00 +29°C° 0 mm 4 mps 726 mmHg 50%
16:00 +29°C° 0 mm 4 mps 725 mmHg 53%
17:00 +29°C° 0 mm 5 mps 724 mmHg 55%
18:00 +27°C° 0.4 mm 4 mps 724 mmHg 60%
19:00 +26°C° 0.4 mm 4 mps 724 mmHg 66%
20:00 +23°C° 0.4 mm 4 mps 724 mmHg 72%
21:00 +22°C° 0.5 mm 4 mps 724 mmHg 75%
22:00 +20°C° 0.5 mm 4 mps 724 mmHg 79%
23:00 +19°C° 0.5 mm 3 mps 724 mmHg 83%

Tomorrow, 2 August, Monday

Time Temperature Precipitation Wind Pressure Humidity
00:00 +19°C° 0 mm 3 mps 724 mmHg 84%
01:00 +18°C° 0 mm 3 mps 723 mmHg 86%
02:00 +18°C° 0 mm 3 mps 723 mmHg 87%
03:00 +18°C° 0 mm 3 mps 723 mmHg 89%
04:00 +18°C° 0 mm 3 mps 723 mmHg 91%
05:00 +17°C° 0 mm 2 mps 723 mmHg 92%
06:00 +18°C° 0 mm 3 mps 724 mmHg 91%
07:00 +18°C° 0 mm 3 mps 724 mmHg 90%
08:00 +19°C° 0 mm 4 mps 725 mmHg 89%
09:00 +19°C° 0.1 mm 4 mps 725 mmHg 88%
10:00 +20°C° 0.1 mm 5 mps 726 mmHg 86%
11:00 +20°C° 0.1 mm 5 mps 726 mmHg 84%
12:00 +19°C° 0.1 mm 5 mps 726 mmHg 84%
13:00 +17°C° 0.1 mm 5 mps 727 mmHg 84%
14:00 +17°C° 0.1 mm 5 mps 727 mmHg 85%
15:00 +17°C° 0.1 mm 5 mps 727 mmHg 84%
16:00 +18°C° 0.1 mm 4 mps 728 mmHg 83%
17:00 +17°C° 0.1 mm 4 mps 728 mmHg 82%
18:00 +17°C° 0 mm 4 mps 728 mmHg 86%
19:00 +16°C° 0 mm 3 mps 728 mmHg 89%
20:00 +14°C° 0 mm 3 mps 728 mmHg 93%
21:00 +13°C° 0 mm 3 mps 728 mmHg 94%
22:00 +14°C° 0 mm 2 mps 729 mmHg 95%
23:00 +13°C° 0 mm 2 mps 729 mmHg 95%

Day after tomorrow, 3 August, Tuesday

Time Temperature Precipitation Wind Pressure Humidity
00:00 +13°C° 0 mm 2 mps 729 mmHg 95%
01:00 +13°C° 0 mm 2 mps 729 mmHg 95%
02:00 +13°C° 0 mm 2 mps 730 mmHg 95%
03:00 +13°C° 0 mm 2 mps 730 mmHg 95%
04:00 +13°C° 0 mm 2 mps 730 mmHg 95%
05:00 +12°C° 0 mm 2 mps 730 mmHg 95%
06:00 +14°C° 0 mm 2 mps 731 mmHg 90%
07:00 +16°C° 0 mm 2 mps 731 mmHg 84%
08:00 +17°C° 0 mm 2 mps 731 mmHg 79%
09:00 +19°C° 0 mm 3 mps 731 mmHg 73%
10:00 +20°C° 0 mm 3 mps 731 mmHg 66%
11:00 +22°C° 0 mm 3 mps 732 mmHg 60%
12:00 +22°C° 0.1 mm 3 mps 731 mmHg 57%
13:00 +24°C° 0.1 mm 3 mps 731 mmHg 54%
14:00 +25°C° 0.1 mm 3 mps 731 mmHg 51%
15:00 +25°C° 0 mm 2 mps 731 mmHg 51%
16:00 +25°C° 0 mm 2 mps 731 mmHg 52%
17:00 +25°C° 0 mm 2 mps 731 mmHg 52%
18:00 +23°C° 0 mm 1 mps 731 mmHg 58%
19:00 +22°C° 0 mm 1 mps 731 mmHg 65%
20:00 +20°C° 0 mm 1 mps 731 mmHg 71%
21:00 +19°C° 0 mm 1 mps 731 mmHg 75%
22:00 +17°C° 0 mm 2 mps 731 mmHg 79%
23:00 +16°C° 0 mm 2 mps 731 mmHg 82%

4 August, Wednesday

Time Temperature Precipitation Wind Pressure Humidity
00:00 +16°C° 0.1 mm 2 mps 731 mmHg 84%
01:00 +15°C° 0.1 mm 2 mps 731 mmHg 86%
02:00 +15°C° 0.1 mm 2 mps 731 mmHg 87%
03:00 +15°C° 0.1 mm 2 mps 730 mmHg 88%
04:00 +14°C° 0.1 mm 2 mps 730 mmHg 88%
05:00 +14°C° 0.1 mm 2 mps 730 mmHg 89%
06:00 +16°C° 0 mm 3 mps 730 mmHg 84%
07:00 +18°C° 0 mm 3 mps 730 mmHg 80%
08:00 +19°C° 0 mm 4 mps 731 mmHg 75%
09:00 +21°C° 0 mm 4 mps 731 mmHg 69%
10:00 +23°C° 0 mm 4 mps 731 mmHg 64%
11:00 +25°C° 0 mm 4 mps 730 mmHg 58%
12:00 +26°C° 0 mm 4 mps 730 mmHg 58%
13:00 +26°C° 0 mm 4 mps 730 mmHg 57%
14:00 +26°C° 0 mm 4 mps 730 mmHg 56%
15:00 +26°C° 0 mm 4 mps 730 mmHg 56%
16:00 +26°C° 0 mm 4 mps 729 mmHg 56%
17:00 +27°C° 0 mm 4 mps 729 mmHg 56%
18:00 +26°C° 0 mm 4 mps 729 mmHg 60%
19:00 +25°C° 0 mm 4 mps 729 mmHg 63%
20:00 +23°C° 0 mm 4 mps 728 mmHg 66%
21:00 +22°C° 0 mm 4 mps 728 mmHg 68%
22:00 +21°C° 0 mm 4 mps 728 mmHg 70%
23:00 +20°C° 0 mm 4 mps 728 mmHg 72%

5 August, Thursday

Time Temperature Precipitation Wind Pressure Humidity
00:00 +20°C° 0 mm 3 mps 728 mmHg 75%
01:00 +19°C° 0 mm 3 mps 727 mmHg 78%
02:00 +18°C° 0 mm 2 mps 727 mmHg 81%
03:00 +18°C° 0 mm 2 mps 727 mmHg 84%
04:00 +17°C° 0 mm 2 mps 727 mmHg 87%
05:00 +16°C° 0 mm 2 mps 727 mmHg 89%
06:00 +19°C° 0 mm 1 mps 727 mmHg 85%
07:00 +20°C° 0 mm 1 mps 727 mmHg 82%
08:00 +21°C° 0 mm 1 mps 727 mmHg 78%
09:00 +23°C° 0 mm 1 mps 727 mmHg 72%
10:00 +24°C° 0 mm 1 mps 727 mmHg 66%
11:00 +26°C° 0 mm 1 mps 726 mmHg 61%
12:00 +27°C° 0 mm 1 mps 726 mmHg 58%
13:00 +27°C° 0 mm 2 mps 726 mmHg 55%
14:00 +28°C° 0 mm 2 mps 725 mmHg 53%
15:00 +26°C° 2.4 mm 3 mps 725 mmHg 66%
16:00 +24°C° 2.4 mm 3 mps 725 mmHg 79%
17:00 +20°C° 2.4 mm 3 mps 724 mmHg 92%
18:00 +20°C° 0.5 mm 3 mps 724 mmHg 94%
19:00 +19°C° 0.5 mm 3 mps 724 mmHg 95%
20:00 +19°C° 0.5 mm 3 mps 724 mmHg 97%
21:00 +18°C° 1.4 mm 3 mps 724 mmHg 97%
22:00 +18°C° 1.4 mm 3 mps 724 mmHg 98%
23:00 +18°C° 1.4 mm 3 mps 723 mmHg 98%

6 August, Friday

Time Temperature Precipitation Wind Pressure Humidity
00:00 +17°C° 3 mm 4 mps 724 mmHg 97%
01:00 +15°C° 3 mm 5 mps 724 mmHg 97%
02:00 +14°C° 3 mm 6 mps 724 mmHg 97%
03:00 +14°C° 1.4 mm 5 mps 725 mmHg 96%
04:00 +14°C° 1.4 mm 5 mps 725 mmHg 96%
05:00 +13°C° 1.4 mm 4 mps 726 mmHg 96%
06:00 +14°C° 0 mm 4 mps 726 mmHg 94%
07:00 +14°C° 0 mm 4 mps 726 mmHg 91%
08:00 +15°C° 0 mm 4 mps 726 mmHg 89%
09:00 +17°C° 0 mm 3 mps 726 mmHg 82%
10:00 +19°C° 0 mm 3 mps 727 mmHg 75%
11:00 +20°C° 0 mm 3 mps 727 mmHg 68%
12:00 +21°C° 0 mm 3 mps 727 mmHg 64%
13:00 +22°C° 0 mm 3 mps 727 mmHg 61%
14:00 +24°C° 0 mm 3 mps 727 mmHg 57%
15:00 +24°C° 0.2 mm 3 mps 727 mmHg 60%
16:00 +22°C° 0.2 mm 3 mps 727 mmHg 62%
17:00 +22°C° 0.2 mm 3 mps 727 mmHg 65%
18:00 +21°C° 0.3 mm 2 mps 727 mmHg 70%
19:00 +19°C° 0.3 mm 2 mps 727 mmHg 75%
20:00 +19°C° 0.3 mm 1 mps 726 mmHg 81%
21:00 +18°C° 0 mm 1 mps 727 mmHg 82%
22:00 +17°C° 0 mm 2 mps 727 mmHg 83%
23:00 +16°C° 0 mm 2 mps 727 mmHg 85%
Show more